Regional Weather Roundup
Issued by NWS State College, PA

Home | Current Version | Previous Version | Graphics & Text | Print | Product List | Glossary Off
Versions: 1 2 3 4 5 6 7 8 9 10 11 12 13 14 15 16 17 18 19 20 21 22 23 24 25 26 27 28 29 30 31 32 33 34 35 36 37 38 39 40 41 42 43 44 45 46 47 48 49 50

000
ASUS41 KCTP 260603
RWRCTP

REGIONAL WEATHER ROUNDUP
NATIONAL WEATHER SERVICE STATE COLLEGE PA
100 AM EST MON JAN 26 2015

Note: "fair" indicates few or no clouds below 12,000 feet with no
significant weather and/or obstructions to visibility.

* = STATION THAT DOES NOT REPORT PRECIPITATION /E.G. RAIN...SNOW...ETC/
    THUNDER OR FOG.

PAZ002>004-007>009-013>016-020>023-029>032-260700-
WESTERN PENNSYLVANIA

CITY           SKY/WX    TMP DP  RH WIND       PRES   REMARKS
ERIE           CLOUDY    17   7  64 NE14      29.92F WCI   3
MEADVILLE      LGT SNOW  17  13  84 NE12      29.81F VSB 1   WCI   4
FRANKLIN*      CLOUDY    19  16  86 NE10      29.80F WCI   8
NEW CASTLE     LGT SNOW  22  21  96 N10       29.80F FOG     WCI  11
BEAVER COUNTY  NOT AVBL
BUTLER*        CLOUDY    27  25  93 NE12      29.76F
PITTSBURGH INT LGT SNOW  29  28  96 N7        29.74F VSB 1
PITTSBURGH     LGT SNOW  30  27  88 CALM      29.72F FOG
INDIANA*       FOG       30  30 100 E7G14     29.80F VSB 1
LATROBE        LGT RAIN  32  32 100 N5        29.75F
WASHINGTON CO* CLOUDY    30  28  93 CALM      29.74F
$$

PAZ004>006-010>012-017>019-024>028-033>037-041-042-045-046-049>053-260700-
CENTRAL PENNSYLVANIA

CITY           SKY/WX    TMP DP  RH WIND       PRES   REMARKS
BRADFORD       LGT SNOW  13   7  77 E7        29.81F WCI   3
DUBOIS         LGT SNOW  23  20  88 E12       29.77F VSB 1   WCI  12
CLEARFIELD     LGT SNOW  22  19  89 NE9       29.83S FOG     WCI  12
JOHNSTOWN      LGT SNOW  29  27  92 E8        29.71F VSB 1
ALTOONA        LGT SNOW  28  27  96 NE9       29.80F VSB 3/4
STATE COLLEGE  LGT SNOW  22  20  92 NE10      29.86F WCI  11
WILLIAMSPORT   CLOUDY    21  11  65 N6        29.96F WCI  13
SELINSGROVE    LGT SNOW  23  19  85 NE13G18   29.95S FOG     WCI  11
FT INDIANTOWN  LGT SNOW  27  23  85 NE8       29.91F FOG
CAPITAL CITY   LGT SNOW  30  26  85 E13       29.90S FOG
HARRISBURG     LGT SNOW  29  26  89 E9        29.89F
YORK           LGT SNOW  33  31  92 E8        29.87S FOG
$$

PAZ038>040-043-044-047-048-054-055-060>062-067>071-260700-
EASTERN PENNSYLVANIA

CITY           SKY/WX    TMP DP  RH WIND       PRES   REMARKS
SCRANTON       CLOUDY    20   7  57 NE12      29.95F WCI   8
MOUNT POCONO   CLOUDY    18   5  57 N5        29.86F WCI  11
ALLENTOWN      MIX PCPN  27  13  55 NE10      29.96S
QUAKERTOWN*    NOT AVBL
READING        LGT SNOW  28  23  81 NE8       29.93S
LANCASTER      LGT SNOW  29  26  89 E13       29.89F FOG
COATESVILLE    LGT SNOW  30  30 100 E9G18     29.90F
POTTSTOWN      LGT SNOW  27  22  81 NE9       29.95F
BLUE BELL      CLOUDY    30  28  93 NE6       29.94F
DOYLESTOWN     LGT SNOW  27  21  78 NE6       29.95S
WILLOW GROVE   NOT AVBL
NORTH PHILA    LGT SNOW  30  23  75 NE12      29.98F
PHILADELPHIA   CLOUDY    32  26  78 NE13      29.96S
$$


USA.gov is the U.S. government's official web portal to all federal, state and local government web resources and services.